Panda — PBCS — position and weather

sailwx.info

Track history (hours):
 
Tides and Currents Weather Stations Pressure Air Temp Water Temp Dewpoint Dewpoint Depression Visibility Wind Speed Wind Dir Waves Ship Positions

Panda

Last reported at 2014-Jul-29 07:19 UTC. Time now 2014-Jul-30 17:11 UTC.
Position N 43°10' E 010°01'.

Length 89 m; draft 3 m.

Type: Cargo ship. MMSI: 245014000.

Date/timePositionNaut miles runAvg speedWind from/ knotsBaromVisibWave heightAir tempDewpointWater temp
2014-Jul-29 07:19N 43°10' E 010°01'9 9.8
2014-Jul-29 06:25N 43°16' E 009°52'8 9.4
2014-Jul-29 05:33N 43°23' E 009°46'9 8.9
2014-Jul-29 04:33N 43°31' E 009°39'9 8.9
2014-Jul-29 03:33N 43°38' E 009°33'9 9.1
2014-Jul-29 02:33N 43°46' E 009°27'9 8.8
2014-Jul-29 01:33N 43°54' E 009°20'8 8.4
2014-Jul-29 00:33N 44°01' E 009°14'8 8.0
2014-Jul-28 23:33N 44°08' E 009°09'8 7.9
2014-Jul-28 22:33N 44°14' E 009°03'8 8.2
2014-Jul-28 21:33N 44°22' E 008°57'3 1.5
2014-Jul-28 19:32N 44°24' E 008°54'0 0.0
2014-Jul-28 18:14N 44°24' E 008°54'0 0.0
2014-Jul-28 16:32N 44°24' E 008°54'0 0.0
2014-Jul-28 15:32N 44°24' E 008°54'0 0.0
2014-Jul-28 14:14N 44°24' E 008°54'0 0.0
2014-Jul-28 11:32N 44°24' E 008°54'0 0.0
2014-Jul-28 10:29N 44°24' E 008°54'0 0.0
2014-Jul-28 08:29N 44°24' E 008°54'0 0.0
2014-Jul-28 07:32N 44°24' E 008°54'0 0.0
2014-Jul-28 06:20N 44°24' E 008°54'1 1.6
2014-Jul-28 05:33N 44°23' E 008°54'0 0.4
2014-Jul-28 04:31N 44°23' E 008°55'0 0.3
2014-Jul-28 03:26N 44°23' E 008°54'0 0.0
2014-Jul-28 02:29N 44°23' E 008°54'0 0.0
2014-Jul-28 01:32N 44°23' E 008°54'0 0.0
2014-Jul-28 00:32N 44°23' E 008°54'0 0.0
2014-Jul-27 23:26N 44°23' E 008°54'0 0.0
2014-Jul-27 22:28N 44°23' E 008°54'0 0.0
2014-Jul-27 21:31N 44°23' E 008°54'0 0.0
2014-Jul-27 20:28N 44°23' E 008°54'0 0.0
2014-Jul-27 18:25N 44°23' E 008°54'0 0.0
2014-Jul-27 17:31N 44°23' E 008°54'0 0.0
2014-Jul-27 16:33N 44°23' E 008°54'7 7.0
2014-Jul-27 15:33N 44°17' E 008°49'1110.6
2014-Jul-27 14:33N 44°09' E 008°39'20 9.2
2014-Jul-27 12:23N 43°57' E 008°17'8 8.7
2014-Jul-27 11:30N 43°53' E 008°08'34 8.4
2014-Jul-27 07:30N 43°33' E 007°31'10 8.9
2014-Jul-27 06:25N 43°27' E 007°20'11 8.8
2014-Jul-27 05:09N 43°20' E 007°08'5 8.6
2014-Jul-27 04:33N 43°17' E 007°03'8 8.4
2014-Jul-27 03:33N 43°12' E 006°53'8 8.1
2014-Jul-27 02:33N 43°07' E 006°45'8 7.9
2014-Jul-27 01:33N 43°03' E 006°36'12 7.7
2014-Jul-27 00:03N 42°58' E 006°22'4 8.0
2014-Jul-26 23:33N 42°57' E 006°16'8 8.5
2014-Jul-26 22:34N 42°58' E 006°05'9 9.2
2014-Jul-26 21:33N 43°00' E 005°52'10 9.4
2014-Jul-26 20:27N 43°03' E 005°39'29 8.8
2014-Jul-26 17:08N 43°17' E 005°04'5 9.3
2014-Jul-26 16:33N 43°21' E 004°59'8 7.6
2014-Jul-26 15:33N 43°23' E 004°49'4 4.0
2014-Jul-26 14:33N 43°26' E 004°44'4 0.1
2014-Jul-24 12:33N 43°23' E 004°48'3 2.6
2014-Jul-24 11:33N 43°23' E 004°52'1010.0
2014-Jul-24 10:33N 43°18' E 005°03'2411.3
2014-Jul-24 08:27N 43°05' E 005°31'1011.5
2014-Jul-24 07:34N 43°01' E 005°44'1111.1
2014-Jul-24 06:33N 42°58' E 005°59'1211.9
2014-Jul-24 05:34N 42°56' E 006°15'1111.2
2014-Jul-24 04:34N 42°58' E 006°30'1211.6
2014-Jul-24 03:31N 43°05' E 006°43'1111.4
2014-Jul-24 02:33N 43°12' E 006°55'1211.2
2014-Jul-24 01:31N 43°19' E 007°07'1111.3
2014-Jul-24 00:33N 43°26' E 007°19'2311.3
2014-Jul-23 22:31N 43°40' E 007°44'4711.2
2014-Jul-23 18:16N 44°09' E 008°37'810.6
2014-Jul-23 17:33N 44°13' E 008°45'1110.5
2014-Jul-23 16:31N 44°20' E 008°57'5 4.8
2014-Jul-23 15:32N 44°24' E 008°54'0 0.0
2014-Jul-23 14:29N 44°24' E 008°54'0 0.0
2014-Jul-23 13:32N 44°24' E 008°54'0 0.0
2014-Jul-23 12:32N 44°24' E 008°54'0 0.0
2014-Jul-23 11:32N 44°24' E 008°54'0 0.0
2014-Jul-23 10:32N 44°24' E 008°54'0 0.0
2014-Jul-23 07:32N 44°24' E 008°54'0 0.0
2014-Jul-23 06:32N 44°24' E 008°54'0 0.0
2014-Jul-23 05:26N 44°24' E 008°54'0 0.0
2014-Jul-23 04:32N 44°24' E 008°54'0 0.0
2014-Jul-23 03:32N 44°24' E 008°54'0 0.0
2014-Jul-23 02:26N 44°24' E 008°54'0 0.0
2014-Jul-23 01:26N 44°24' E 008°54'0 0.0
2014-Jul-23 00:32N 44°24' E 008°54'0 0.0
2014-Jul-22 23:29N 44°24' E 008°54'0 0.0
2014-Jul-22 22:32N 44°24' E 008°54'0 0.0
2014-Jul-22 21:32N 44°24' E 008°54'0 0.0
2014-Jul-22 20:26N 44°24' E 008°54'0 0.0
2014-Jul-22 19:32N 44°24' E 008°54'0 0.0
2014-Jul-22 18:31N 44°24' E 008°54'0 0.0
2014-Jul-22 17:31N 44°24' E 008°54'0 0.0
2014-Jul-22 16:31N 44°24' E 008°54'0 0.0
2014-Jul-22 14:25N 44°24' E 008°54'4 4.5
2014-Jul-22 13:33N 44°21' E 008°58'10 9.6
2014-Jul-22 12:33N 44°15' E 008°49'1010.3
2014-Jul-22 11:33N 44°08' E 008°37'71 9.5
2014-Jul-22 04:09N 43°25' E 007°20'6 9.8
2014-Jul-22 03:30N 43°21' E 007°13'9 9.8
2014-Jul-22 02:33N 43°16' E 007°02'10 9.8
2014-Jul-22 01:33N 43°10' E 006°52'10 9.6
2014-Jul-22 00:33N 43°04' E 006°41'10 9.6
2014-Jul-21 23:33N 42°59' E 006°31'9 8.5
2014-Jul-21 22:26N 42°55' E 006°19'7 8.3
2014-Jul-21 21:33N 42°52' E 006°10'9 8.3
2014-Jul-21 20:30N 42°48' E 005°59'2 8.5
2014-Jul-21 20:17N 42°48' E 005°57'6 8.3
2014-Jul-21 19:30N 42°45' E 005°48'45 8.9
2014-Jul-21 14:29N 42°28' E 004°53'9 8.3
2014-Jul-21 13:26N 42°24' E 004°42'36 9.1
2014-Jul-21 09:26N 42°10' E 003°56'18 8.8
2014-Jul-21 07:24N 42°03' E 003°34'10 9.1
2014-Jul-21 06:21N 41°59' E 003°22'8 8.7
2014-Jul-21 05:28N 41°53' E 003°17'910.0
2014-Jul-21 04:33N 41°45' E 003°12'1510.4
2014-Jul-21 03:07N 41°32' E 002°60'6 9.4
2014-Jul-21 02:29N 41°27' E 002°55'10 9.6
2014-Jul-21 01:26N 41°19' E 002°48'9 9.6
2014-Jul-21 00:28N 41°12' E 002°41'18 9.3
2014-Jul-20 22:29N 40°56' E 002°27'9 9.4
2014-Jul-20 21:33N 40°49' E 002°21'1010.1
2014-Jul-20 20:33N 40°41' E 002°13'1010.3
2014-Jul-20 19:33N 40°32' E 002°05'1310.3
2014-Jul-20 18:16N 40°21' E 001°56'710.2
2014-Jul-20 17:33N 40°15' E 001°50'1010.2
2014-Jul-20 16:33N 40°07' E 001°43'1010.0
2014-Jul-20 15:33N 39°59' E 001°35'1510.1
2014-Jul-20 14:06N 39°47' E 001°25'37 9.6
2014-Jul-20 10:17N 39°16' E 000°58'7 9.5
2014-Jul-20 09:33N 39°10' E 000°53'40 9.3
2014-Jul-20 05:12N 38°37' E 000°24'2910.0
2014-Jul-20 02:17N 38°13' E 000°03'3411.3
2014-Jul-19 23:14N 37°44' W 000°21'810.1
2014-Jul-19 22:29N 37°38' W 000°27'9 9.7
2014-Jul-19 21:30N 37°31' W 000°34'  
Track history (hours):
 
Tides and Currents Weather Stations Pressure Air Temp Water Temp Dewpoint Dewpoint Depression Visibility Wind Speed Wind Dir Waves Ship Positions

Panda

Last reported at 2014-Jul-29 07:19 UTC. Time now 2014-Jul-30 17:11 UTC.
Position N 43°10' E 010°01'.

Length 89 m; draft 3 m.

Type: Cargo ship. MMSI: 245014000.

Date/timePositionNaut miles runAvg speedWind from/ knotsBaromVisibWave heightAir tempDewpointWater temp
2014-Jul-29 07:19N 43°10' E 010°01'9 9.8
2014-Jul-29 06:25N 43°16' E 009°52'8 9.4
2014-Jul-29 05:33N 43°23' E 009°46'9 8.9
2014-Jul-29 04:33N 43°31' E 009°39'9 8.9
2014-Jul-29 03:33N 43°38' E 009°33'9 9.1
2014-Jul-29 02:33N 43°46' E 009°27'9 8.8
2014-Jul-29 01:33N 43°54' E 009°20'8 8.4
2014-Jul-29 00:33N 44°01' E 009°14'8 8.0
2014-Jul-28 23:33N 44°08' E 009°09'8 7.9
2014-Jul-28 22:33N 44°14' E 009°03'8 8.2
2014-Jul-28 21:33N 44°22' E 008°57'3 1.5
2014-Jul-28 19:32N 44°24' E 008°54'0 0.0
2014-Jul-28 18:14N 44°24' E 008°54'0 0.0
2014-Jul-28 16:32N 44°24' E 008°54'0 0.0
2014-Jul-28 15:32N 44°24' E 008°54'0 0.0
2014-Jul-28 14:14N 44°24' E 008°54'0 0.0
2014-Jul-28 11:32N 44°24' E 008°54'0 0.0
2014-Jul-28 10:29N 44°24' E 008°54'0 0.0
2014-Jul-28 08:29N 44°24' E 008°54'0 0.0
2014-Jul-28 07:32N 44°24' E 008°54'0 0.0
2014-Jul-28 06:20N 44°24' E 008°54'1 1.6
2014-Jul-28 05:33N 44°23' E 008°54'0 0.4
2014-Jul-28 04:31N 44°23' E 008°55'0 0.3
2014-Jul-28 03:26N 44°23' E 008°54'0 0.0
2014-Jul-28 02:29N 44°23' E 008°54'0 0.0
2014-Jul-28 01:32N 44°23' E 008°54'0 0.0
2014-Jul-28 00:32N 44°23' E 008°54'0 0.0
2014-Jul-27 23:26N 44°23' E 008°54'0 0.0
2014-Jul-27 22:28N 44°23' E 008°54'0 0.0
2014-Jul-27 21:31N 44°23' E 008°54'0 0.0
2014-Jul-27 20:28N 44°23' E 008°54'0 0.0
2014-Jul-27 18:25N 44°23' E 008°54'0 0.0
2014-Jul-27 17:31N 44°23' E 008°54'0 0.0
2014-Jul-27 16:33N 44°23' E 008°54'7 7.0
2014-Jul-27 15:33N 44°17' E 008°49'1110.6
2014-Jul-27 14:33N 44°09' E 008°39'20 9.2
2014-Jul-27 12:23N 43°57' E 008°17'8 8.7
2014-Jul-27 11:30N 43°53' E 008°08'34 8.4
2014-Jul-27 07:30N 43°33' E 007°31'10 8.9
2014-Jul-27 06:25N 43°27' E 007°20'11 8.8
2014-Jul-27 05:09N 43°20' E 007°08'5 8.6
2014-Jul-27 04:33N 43°17' E 007°03'8 8.4
2014-Jul-27 03:33N 43°12' E 006°53'8 8.1
2014-Jul-27 02:33N 43°07' E 006°45'8 7.9
2014-Jul-27 01:33N 43°03' E 006°36'12 7.7
2014-Jul-27 00:03N 42°58' E 006°22'4 8.0
2014-Jul-26 23:33N 42°57' E 006°16'8 8.5
2014-Jul-26 22:34N 42°58' E 006°05'9 9.2
2014-Jul-26 21:33N 43°00' E 005°52'10 9.4
2014-Jul-26 20:27N 43°03' E 005°39'29 8.8
2014-Jul-26 17:08N 43°17' E 005°04'5 9.3
2014-Jul-26 16:33N 43°21' E 004°59'8 7.6
2014-Jul-26 15:33N 43°23' E 004°49'4 4.0
2014-Jul-26 14:33N 43°26' E 004°44'4 0.1
2014-Jul-24 12:33N 43°23' E 004°48'3 2.6
2014-Jul-24 11:33N 43°23' E 004°52'1010.0
2014-Jul-24 10:33N 43°18' E 005°03'2411.3
2014-Jul-24 08:27N 43°05' E 005°31'1011.5
2014-Jul-24 07:34N 43°01' E 005°44'1111.1
2014-Jul-24 06:33N 42°58' E 005°59'1211.9
2014-Jul-24 05:34N 42°56' E 006°15'1111.2
2014-Jul-24 04:34N 42°58' E 006°30'1211.6
2014-Jul-24 03:31N 43°05' E 006°43'1111.4
2014-Jul-24 02:33N 43°12' E 006°55'1211.2
2014-Jul-24 01:31N 43°19' E 007°07'1111.3
2014-Jul-24 00:33N 43°26' E 007°19'2311.3
2014-Jul-23 22:31N 43°40' E 007°44'4711.2
2014-Jul-23 18:16N 44°09' E 008°37'810.6
2014-Jul-23 17:33N 44°13' E 008°45'1110.5
2014-Jul-23 16:31N 44°20' E 008°57'5 4.8
2014-Jul-23 15:32N 44°24' E 008°54'0 0.0
2014-Jul-23 14:29N 44°24' E 008°54'0 0.0
2014-Jul-23 13:32N 44°24' E 008°54'0 0.0
2014-Jul-23 12:32N 44°24' E 008°54'0 0.0
2014-Jul-23 11:32N 44°24' E 008°54'0 0.0
2014-Jul-23 10:32N 44°24' E 008°54'0 0.0
2014-Jul-23 07:32N 44°24' E 008°54'0 0.0
2014-Jul-23 06:32N 44°24' E 008°54'0 0.0
2014-Jul-23 05:26N 44°24' E 008°54'0 0.0
2014-Jul-23 04:32N 44°24' E 008°54'0 0.0
2014-Jul-23 03:32N 44°24' E 008°54'0 0.0
2014-Jul-23 02:26N 44°24' E 008°54'0 0.0
2014-Jul-23 01:26N 44°24' E 008°54'0 0.0
2014-Jul-23 00:32N 44°24' E 008°54'0 0.0
2014-Jul-22 23:29N 44°24' E 008°54'0 0.0
2014-Jul-22 22:32N 44°24' E 008°54'0 0.0
2014-Jul-22 21:32N 44°24' E 008°54'0 0.0
2014-Jul-22 20:26N 44°24' E 008°54'0 0.0
2014-Jul-22 19:32N 44°24' E 008°54'0 0.0
2014-Jul-22 18:31N 44°24' E 008°54'0 0.0
2014-Jul-22 17:31N 44°24' E 008°54'0 0.0
2014-Jul-22 16:31N 44°24' E 008°54'0 0.0
2014-Jul-22 14:25N 44°24' E 008°54'4 4.5
2014-Jul-22 13:33N 44°21' E 008°58'10 9.6
2014-Jul-22 12:33N 44°15' E 008°49'1010.3
2014-Jul-22 11:33N 44°08' E 008°37'71 9.5
2014-Jul-22 04:09N 43°25' E 007°20'6 9.8
2014-Jul-22 03:30N 43°21' E 007°13'9 9.8
2014-Jul-22 02:33N 43°16' E 007°02'10 9.8
2014-Jul-22 01:33N 43°10' E 006°52'10 9.6
2014-Jul-22 00:33N 43°04' E 006°41'10 9.6
2014-Jul-21 23:33N 42°59' E 006°31'9 8.5
2014-Jul-21 22:26N 42°55' E 006°19'7 8.3
2014-Jul-21 21:33N 42°52' E 006°10'9 8.3
2014-Jul-21 20:30N 42°48' E 005°59'2 8.5
2014-Jul-21 20:17N 42°48' E 005°57'6 8.3
2014-Jul-21 19:30N 42°45' E 005°48'45 8.9
2014-Jul-21 14:29N 42°28' E 004°53'9 8.3
2014-Jul-21 13:26N 42°24' E 004°42'36 9.1
2014-Jul-21 09:26N 42°10' E 003°56'18 8.8
2014-Jul-21 07:24N 42°03' E 003°34'10 9.1
2014-Jul-21 06:21N 41°59' E 003°22'8 8.7
2014-Jul-21 05:28N 41°53' E 003°17'910.0
2014-Jul-21 04:33N 41°45' E 003°12'1510.4
2014-Jul-21 03:07N 41°32' E 002°60'6 9.4
2014-Jul-21 02:29N 41°27' E 002°55'10 9.6
2014-Jul-21 01:26N 41°19' E 002°48'9 9.6
2014-Jul-21 00:28N 41°12' E 002°41'18 9.3
2014-Jul-20 22:29N 40°56' E 002°27'9 9.4
2014-Jul-20 21:33N 40°49' E 002°21'1010.1
2014-Jul-20 20:33N 40°41' E 002°13'1010.3
2014-Jul-20 19:33N 40°32' E 002°05'1310.3
2014-Jul-20 18:16N 40°21' E 001°56'710.2
2014-Jul-20 17:33N 40°15' E 001°50'1010.2
2014-Jul-20 16:33N 40°07' E 001°43'1010.0
2014-Jul-20 15:33N 39°59' E 001°35'1510.1
2014-Jul-20 14:06N 39°47' E 001°25'37 9.6
2014-Jul-20 10:17N 39°16' E 000°58'7 9.5
2014-Jul-20 09:33N 39°10' E 000°53'40 9.3
2014-Jul-20 05:12N 38°37' E 000°24'2910.0
2014-Jul-20 02:17N 38°13' E 000°03'3411.3
2014-Jul-19 23:14N 37°44' W 000°21'810.1
2014-Jul-19 22:29N 37°38' W 000°27'9 9.7
2014-Jul-19 21:30N 37°31' W 000°34'  

Dump ship's entire track history